CAPE
2 2 2 2 1 1 1 1 1 1 0 0 0 0 0 0 0 0 0 0 0 0 0 0 0 0 0 0 0 158 26 46 26 62 125 121 17 48 29 3 0 0 0 0 0
2 2 2 1 2 2 2 2 2 2 1 0 0 0 0 0 0 0 0 0 0 0 0 0 0 0 0 0 0 27 0 7 36 49 46 143 64 5 3 11 66 3 0 3 80
1 0 1 0 0 0 1 0 2 1 2 2 0 0 0 0 0 0 0 0 0 0 0 0 0 0 0 0 0 2 0 1 40 106 243 61 36 4 2 1 5 0 0 41 19
0 0 1 0 0 0 0 0 1 1 0 2 1 0 0 0 0 0 0 0 0 0 0 0 0 0 0 0 0 0 5 0 21 169 91 67 3 0 0 1 6 2 0 2 47
0 1 0 0 0 1 0 0 0 0 0 1 2 0 0 0 0 0 0 0 0 0 0 0 0 0 0 0 0 0 28 20 99 85 12 18 81 164 3 61 21 23 6 23 56
0 0 0 1 1 1 1 1 0 0 0 1 1 1 0 0 0 0 0 0 0 0 0 0 0 0 0 0 0 10 70 47 88 112 47 102 65 31 9 81 7 10 2 25 53
1 1 0 0 1 1 1 0 0 0 0 0 0 0 0 0 0 0 0 0 0 0 0 0 0 0 0 0 0 0 0 58 124 262 185 44 18 3 18 48 5 3 2 13 45
2 1 1 1 1 1 0 0 0 0 0 0 1 0 0 0 0 0 0 0 0 0 0 0 0 0 0 0 0 0 4 6 188 231 266 124 1 12 1 64 41 2 0 26 52
1 1 1 0 0 1 0 0 0 0 1 0 0 0 0 0 0 0 0 0 0 0 0 0 0 0 0 0 0 0 0 5 265 370 265 88 0 7 37 58 56 21 0 13 47
1 1 1 0 0 0 0 0 0 0 0 0 0 0 0 0 0 0 0 0 0 0 0 0 0 0 0 0 0 0 0 0 15 124 101 48 0 6 51 56 95 25 0 5 26
1 0 0 0 0 0 0 0 0 0 0 0 0 0 0 0 0 0 0 0 0 0 0 0 0 0 0 0 0 0 0 6 241 139 65 10 0 0 1 108 129 3 0 5 29
0 0 0 0 0 0 0 0 0 0 0 0 0 0 0 0 0 0 0 0 0 0 0 0 0 0 0 0 0 0 0 8 119 58 61 71 116 145 89 162 118 0 0 2 19
0 0 0 0 0 0 0 0 0 0 0 0 0 0 0 0 0 0 0 0 0 0 0 0 0 0 0 0 0 0 0 0 21 16 3 88 17 96 113 134 18 2 0 3 4
0 0 0 0 0 0 0 0 0 0 0 0 0 0 0 0 0 0 0 0 0 0 0 0 0 0 0 0 0 0 0 0 52 80 43 86 1 0 3 39 65 61 5 0 1
0 0 0 0 0 0 0 0 0 0 0 0 0 0 0 0 0 0 0 0 0 0 0 0 0 0 0 0 0 0 0 0 24 81 112 28 0 0 0 79 166 172 16 1 1
0 0 0 0 0 0 0 0 0 0 0 0 0 0 0 0 0 0 0 0 0 0 0 0 0 0 0 0 0 0 0 83 64 38 6 0 0 2 0 47 206 248 47 51 33
0 0 0 0 0 0 0 0 6 16 6 11 1 0 0 0 0 0 0 0 0 0 0 0 0 0 0 0 0 0 0 0 5 14 0 0 0 3 24 159 313 336 210 124 119
0 0 0 0 0 0 0 0 9 24 0 0 0 0 0 0 0 0 0 0 0 0 0 0 0 0 0 0 0 0 0 0 0 0 1 7 0 16 31 169 284 214 271 239 215
0 0 0 0 0 0 0 0 1 18 0 0 0 0 0 0 0 0 0 0 0 0 0 0 0 0 0 0 0 0 0 0 0 0 0 78 49 99 81 2 130 46 187 179 249
0 0 0 0 0 0 0 0 0 0 0 0 0 0 0 0 0 0 0 0 0 0 0 0 0 0 0 0 0 0 0 0 0 0 0 66 82 44 38 233 174 19 10 161 71
0 0 0 0 0 0 0 0 0 0 1 0 0 0 0 0 0 3 0 0 0 0 0 0 0 0 0 0 0 0 0 0 0 0 5 49 60 282 198 337 239 275 210 147 75
0 0 0 0 0 0 0 0 0 0 0 0 0 0 0 0 0 1 0 0 0 0 0 0 0 0 0 0 0 0 0 0 0 0 52 73 93 191 113 145 188 172 181 54 76
0 0 0 0 0 0 0 0 0 0 0 0 0 0 0 0 0 0 0 0 0 0 0 0 0 0 0 0 0 0 0 0 0 0 0 0 64 121 75 60 31 112 100 93 38
0 0 0 0 0 0 0 0 0 0 0 0 0 0 0 0 0 0 0 0 0 0 0 0 0 0 0 0 0 0 0 0 0 0 0 19 150 166 39 26 25 1 1 0 1
0 0 0 0 0 0 0 0 0 0 0 0 0 0 0 4 0 0 0 0 0 0 0 0 0 0 0 0 0 0 0 0 0 0 0 117 144 197 44 1 0 0 0 0 0
0 0 0 0 0 0 0 0 0 0 0 0 0 0 0 0 0 0 0 0 0 0 0 0 0 0 0 0 0 0 0 0 0 120 93 191 156 53 0 0 0 0 0 0 0
0 0 0 0 0 0 0 0 0 0 0 0 0 0 0 0 0 0 0 0 0 0 0 0 0 0 0 0 0 0 0 51 109 115 93 65 100 0 0 0 0 0 0 0 0
CIN
-0 -0 -0 -0 -0 -0 -0 -0 -0 -0 -0 -0 -0 -0 -0 -0 -0 -0 -0 -0 -0 -0 -0 -0 -0 -0 -0 -0 -0 -18 -22 -10 -10 -13 -9 -30 -87 -96 -133 -26 -0 -0 -0 -0 -0
-0 -0 -0 -0 -0 -0 -0 -0 -0 -0 -0 -0 -0 -0 -0 -0 -0 -0 -0 -0 -0 -0 -0 -0 -0 -0 -0 -0 -0 -68 -0 -21 -46 -45 -8 -41 -74 -71 -51 -15 -25 -27 -0 -50 -117
-0 -0 -0 -0 -0 -0 -0 -0 -0 -0 -0 -0 -0 -0 -0 -0 -0 -0 -0 -0 -0 -0 -0 -0 -0 -0 -0 -0 -0 -39 -0 -48 -93 -72 -11 -47 -56 -86 -109 -44 -70 -0 -0 -70 -98
-0 -0 -0 -1 -0 -0 -0 -0 -0 -0 -0 -0 -0 -0 -0 -0 -0 -0 -0 -0 -0 -0 -0 -0 -0 -0 -0 -0 -0 -0 -106 -0 -103 -55 -46 -74 -59 -0 -0 -6 -86 -23 -0 -7 -74
-0 -0 -0 -0 -0 -0 -0 -0 -0 -0 -0 -0 -0 -0 -0 -0 -0 -0 -0 -0 -0 -0 -0 -0 -0 -0 -0 -0 -0 -0 -111 -101 -82 -108 -88 -64 -40 -48 -47 -102 -39 -8 -19 -18 -35
-0 -0 -0 -0 -0 -0 -0 -0 -0 -0 -0 -0 -0 -0 -0 -0 -0 -0 -0 -0 -0 -0 -0 -0 -0 -0 -0 -0 -0 -113 -86 -95 -136 -87 -55 -27 -50 -35 -33 -60 -33 -16 -23 -24 -30
-0 -0 -0 -0 -0 -0 -0 -0 -0 -0 -0 -0 -0 -0 -0 -0 -0 -0 -0 -0 -0 -0 -0 -0 -0 -0 -0 -0 -0 -0 -0 -68 -114 -66 -24 -72 -51 -24 -26 -40 -32 -22 -11 -30 -24
-0 -0 -0 -0 -0 -0 -0 -0 -0 -0 -0 -0 -0 -0 -0 -0 -0 -0 -0 -0 -0 -0 -0 -0 -0 -0 -0 -0 -0 -0 -12 -21 -71 -44 -47 -28 -12 -89 -23 -50 -31 -12 -0 -11 -29
-0 -0 -0 -0 -0 -0 -0 -0 -0 -0 -0 -0 -0 -0 -0 -0 -0 -0 -0 -0 -0 -0 -0 -0 -0 -0 -0 -0 -0 -0 -0 -26 -21 -45 -84 -54 -0 -157 -72 -53 -22 -22 -0 -9 -34
-0 -0 -0 -0 -0 -0 -0 -0 -0 -0 -0 -0 -0 -0 -0 -0 -0 -0 -0 -0 -0 -0 -0 -0 -0 -0 -0 -0 -0 -0 -0 -0 -31 -129 -24 -91 -0 -207 -128 -80 -32 -27 -0 -15 -34
-0 -0 -0 -0 -0 -0 -0 -0 -0 -0 -0 -0 -0 -0 -0 -0 -0 -0 -0 -0 -0 -0 -0 -0 -0 -0 -0 -0 -0 -0 -0 -46 -54 -64 -38 -70 -0 -0 -42 -53 -29 -113 -0 -8 -26
-0 -0 -0 -0 -0 -0 -0 -0 -0 -0 -0 -0 -0 -0 -0 -0 -0 -0 -0 -0 -0 -0 -0 -0 -0 -0 -0 -0 -0 -0 -0 -19 -118 -67 -70 -50 -16 -30 -48 -42 -42 -0 -0 -11 -33
-0 -0 -0 -0 -0 -0 -0 -0 -0 -0 -0 -0 -0 -0 -0 -0 -0 -0 -0 -0 -0 -0 -0 -0 -0 -0 -0 -0 -0 -0 -0 -0 -34 -144 -8 -45 -61 -41 -34 -33 -13 -9 -0 -19 -32
-0 -0 -0 -0 -0 -0 -0 -0 -0 -0 -0 -0 -0 -0 -0 -0 -0 -0 -0 -0 -0 -0 -0 -0 -0 -0 -0 -0 -0 -0 -0 -0 -59 -75 -36 -79 -11 -0 -17 -20 -13 -9 -12 -11 -7
-0 -0 -0 -0 -0 -0 -0 -0 -0 -0 -0 -0 -0 -0 -0 -0 -0 -0 -0 -0 -0 -0 -0 -0 -0 -0 -0 -0 -0 -0 -0 -0 -95 -83 -63 -107 -4 -0 -0 -28 -10 -8 -14 -16 -46
-0 -0 -0 -0 -0 -0 -0 -0 -0 -0 -0 -0 -0 -0 -0 -0 -0 -0 -0 -0 -0 -0 -0 -0 -0 -0 -0 -0 -0 -0 -0 -60 -109 -112 -16 -0 -0 -84 -0 -95 -54 -20 -34 -28 -37
-0 -0 -0 -0 -0 -0 -0 -0 -65 -41 -56 -33 -34 -0 -0 -0 -0 -0 -0 -0 -0 -0 -0 -0 -0 -0 -0 -0 -0 -0 -0 -0 -9 -14 -0 -0 -0 -40 -163 -125 -103 -104 -50 -35 -75
-0 -0 -0 -0 -0 -0 -0 -0 -85 -88 -38 -0 -0 -0 -0 -0 -0 -0 -0 -0 -0 -0 -0 -0 -0 -0 -0 -0 -0 -0 -0 -0 -0 -0 -41 -31 -0 -86 -118 -147 -116 -113 -73 -73 -78
-0 -0 -0 -0 -0 -0 -0 -0 -24 -71 -0 -0 -0 -0 -0 -0 -0 -0 -0 -0 -0 -0 -0 -0 -0 -0 -0 -0 -0 -0 -0 -0 -0 -0 -0 -42 -99 -189 -213 -81 -156 -197 -120 -88 -96
-0 -0 -0 -0 -0 -0 -0 -0 -0 -0 -0 -0 -0 -0 -0 -0 -0 -0 -10 -0 -0 -0 -0 -0 -0 -0 -0 -0 -0 -0 -0 -0 -0 -0 -0 -47 -83 -126 -170 -109 -142 -202 -145 -134 -221
-0 -0 -0 -0 -0 -0 -0 -0 -0 -10 -10 -0 -0 -0 -0 -0 -0 -60 -1 -0 -0 -0 -0 -0 -0 -0 -0 -0 -0 -0 -0 -0 -0 -0 -5 -31 -58 -43 -24 -37 -95 -94 -145 -172 -235
-0 -0 -0 -0 -0 -0 -0 -0 -0 -0 -0 -0 -0 -0 -0 -0 -0 -78 -0 -0 -0 -0 -0 -0 -0 -0 -0 -0 -0 -0 -0 -0 -0 -0 -81 -93 -46 -15 -109 -88 -91 -139 -173 -230 -209
-0 -0 -0 -0 -0 -0 -0 -0 -0 -0 -0 -0 -0 -0 -0 -0 -0 -0 -0 -0 -0 -0 -0 -0 -0 -0 -5 -0 -0 -0 -0 -0 -0 -0 -0 -0 -42 -29 -56 -66 -71 -138 -193 -180 -195
-0 -0 -0 -0 -0 -0 -0 -0 -0 -0 -0 -0 -0 -0 -0 -0 -0 -0 -0 -0 -0 -0 -0 -0 -0 -0 -0 -0 -0 -0 -0 -0 -0 -0 -0 -103 -69 -19 -42 -91 -90 -12 -94 -0 -0
-0 -0 -0 -0 -0 -0 -0 -0 -0 -0 -0 -0 -0 -0 -0 -80 -0 -0 -0 -0 -0 -0 -0 -0 -0 -0 -0 -0 -0 -0 -0 -0 -0 -0 -0 -126 -88 -4 -33 -25 -0 -0 -0 -0 -0
-0 -0 -0 -0 -0 -0 -0 -0 -0 -0 -0 -0 -0 -0 -0 -0 -0 -0 -0 -0 -0 -0 -0 -0 -0 -0 -0 -0 -0 -0 -0 -0 -0 -99 -146 -164 -84 -32 -0 -0 -0 -0 -0 -0 -0
-0 -0 -0 -0 -0 -0 -0 -0 -0 -0 -0 -0 -0 -0 -0 -0 -0 -0 -0 -0 -0 -0 -0 -0 -0 -0 -0 -0 -0 -0 -0 -37 -109 -99 -111 -143 -172 -0 -0 -0 -0 -0 -0 -0 -0
Wind_Speed
29 29 29 28 28 28 27 27 27 26 26 25 25 25 25 26 26 23 30 24 18 12 8 9 16 14 15 19 16 18 11 13 15 27 3 10 4 17 7 12 23 14 31 33 35
29 29 29 28 28 28 28 28 27 27 26 26 26 25 25 25 25 30 32 23 18 4 13 13 16 10 12 16 15 13 17 17 15 17 10 7 7 7 6 1 14 20 25 31 30
28 29 29 29 28 28 28 28 28 27 27 27 26 25 25 24 24 23 21 22 7 8 17 16 14 10 14 13 11 9 15 12 16 19 17 1 9 3 17 19 28 32 31 30 32
30 31 30 30 29 29 29 28 27 28 27 27 26 25 24 19 20 18 21 9 10 11 12 17 18 13 17 16 4 11 15 12 14 12 4 7 5 7 3 30 35 31 33 28 33
31 31 31 30 30 29 29 29 28 27 27 26 26 24 19 23 25 20 17 7 10 11 16 19 19 15 17 16 11 22 9 15 12 13 8 10 8 8 29 23 34 33 28 29 32
31 31 31 30 30 30 30 29 28 28 27 26 23 21 20 27 19 15 9 7 15 15 21 20 19 17 20 24 20 18 19 8 17 20 24 7 5 13 11 7 29 36 30 31 30
30 31 31 31 30 30 30 29 28 27 26 23 20 19 23 28 16 12 11 15 18 17 19 25 23 19 17 24 23 26 20 8 11 14 6 8 10 11 15 25 30 35 31 32 28
31 32 31 30 29 29 28 28 27 25 23 20 19 18 25 21 28 27 20 18 20 22 23 19 22 26 24 25 23 20 18 13 7 13 9 9 11 9 30 30 33 36 31 34 27
31 31 30 29 28 27 25 24 23 21 17 14 14 18 25 25 19 23 19 17 18 23 24 22 22 26 22 22 22 16 18 14 9 15 7 12 9 27 36 36 36 38 33 34 25
31 31 29 28 26 23 22 21 17 17 13 10 18 20 22 21 20 17 19 15 16 21 22 23 22 26 23 21 23 17 18 20 20 13 11 5 5 17 25 37 37 36 32 22 24
28 29 28 26 24 22 21 19 20 18 18 15 17 22 22 16 19 22 17 15 17 18 22 22 25 31 33 26 26 23 20 19 16 11 7 10 6 19 23 32 37 28 27 16 21
7 12 18 23 22 21 20 19 18 21 26 30 29 28 31 23 19 21 16 19 23 26 24 23 30 28 31 31 28 26 23 18 12 10 10 6 5 15 25 32 37 26 26 16 18
9 16 18 19 20 17 17 18 24 28 25 23 17 20 20 16 22 21 17 18 23 27 29 26 25 26 27 33 32 30 26 20 20 15 17 19 17 11 13 10 21 24 20 19 18
11 14 17 15 17 18 21 17 26 20 18 17 15 18 19 19 19 21 19 18 20 29 27 28 31 25 27 32 31 33 26 20 18 22 24 21 22 25 17 31 21 23 17 18 15
12 13 15 15 14 15 18 26 26 14 15 16 14 17 15 11 14 20 21 21 21 23 23 25 28 27 29 32 29 32 25 23 19 24 15 20 20 18 14 20 21 36 21 12 20
12 11 12 15 11 8 21 21 19 14 15 16 12 17 18 18 16 17 19 24 19 24 29 32 28 26 29 29 30 29 20 15 15 19 26 25 23 21 4 9 35 36 25 20 11
6 8 12 13 15 5 22 18 14 15 18 15 17 18 24 22 21 18 20 23 25 25 30 27 32 35 31 32 27 22 18 23 25 28 30 19 25 26 4 13 27 9 17 12 9
8 5 12 11 11 14 17 18 16 16 18 19 21 25 21 23 22 16 21 24 26 23 23 26 30 27 23 28 23 21 20 24 28 25 23 15 27 25 16 16 5 4 6 5 14
1 16 13 12 14 17 21 19 17 16 18 18 19 13 15 18 21 19 22 24 25 23 23 21 26 21 24 23 23 24 25 22 24 23 23 20 21 16 10 13 7 7 6 8 11
20 16 13 13 15 9 22 19 17 15 14 17 16 15 12 16 17 19 15 18 20 19 24 24 27 21 22 21 22 25 19 24 23 27 27 23 20 23 19 16 16 15 11 7 4
19 19 14 22 13 19 20 18 18 19 17 15 15 14 12 13 11 14 15 11 14 17 14 19 22 24 20 24 23 23 22 20 20 21 24 26 24 20 11 10 11 13 9 9 5
20 17 18 20 22 20 20 19 16 18 17 16 13 13 12 12 11 11 14 13 15 16 18 18 18 25 24 20 19 19 21 21 24 25 19 21 23 10 4 6 6 6 5 7 9
19 17 14 13 18 14 15 16 20 18 16 16 14 12 11 12 12 15 14 14 13 13 16 17 18 23 23 20 17 22 22 21 19 20 26 27 22 9 4 5 8 5 4 5 6
19 20 19 18 18 23 20 16 17 20 16 17 16 13 13 13 13 14 18 17 16 15 17 16 15 17 22 21 21 25 26 24 23 25 24 23 16 13 8 5 2 3 5 6 6
18 18 16 16 17 19 23 20 21 20 15 16 14 17 11 13 16 15 15 17 15 17 17 17 20 18 18 19 19 19 24 28 27 25 25 19 16 16 12 9 8 6 5 5 6
16 18 11 11 20 22 20 18 19 19 17 15 14 13 11 11 14 15 14 13 16 17 18 18 23 19 20 18 17 17 19 21 19 15 13 14 15 10 5 3 2 1 2 5 8
16 13 15 14 19 18 19 21 21 18 18 18 15 13 13 16 16 15 16 18 16 16 15 16 19 23 24 23 22 19 19 16 18 18 12 18 16 13 9 5 3 3 2 1 6
Wind_Direction
331 328 322 320 317 314 311 306 302 300 298 297 294 286 281 278 269 267 248 248 259 273 282 274 260 267 268 257 278 329 310 262 214 168 331 87 81 208 283 96 110 219 120 122 125
334 332 330 326 320 316 311 307 303 300 297 294 293 292 285 280 275 253 238 254 258 220 260 257 250 261 277 265 287 312 356 196 223 229 229 74 98 115 224 249 216 95 106 119 122
342 336 329 326 325 319 313 308 302 300 296 293 290 291 290 282 276 265 261 251 241 255 257 255 254 261 268 282 287 328 351 249 225 218 144 117 100 100 103 182 173 129 123 123 127
335 328 325 320 318 316 312 308 306 299 296 292 289 288 288 292 268 272 270 255 244 252 257 246 244 255 257 266 321 317 152 207 184 263 328 89 102 109 65 203 159 136 132 125 131
335 328 320 314 314 312 309 304 300 299 295 292 289 286 289 271 261 269 283 237 240 247 246 237 239 249 252 267 291 259 318 212 224 211 36 86 80 85 193 168 178 139 130 130 137
342 331 321 315 312 309 306 303 297 295 293 290 289 287 276 261 276 275 286 251 247 245 242 237 243 252 262 255 264 277 271 312 109 168 112 68 315 256 130 215 147 147 141 142 139
352 339 327 320 315 307 304 300 298 293 289 287 288 285 270 255 277 276 275 265 249 244 242 235 239 254 270 264 268 260 273 303 107 91 60 49 263 270 227 210 153 149 147 147 140
353 342 338 330 324 314 306 300 299 300 292 288 283 282 267 272 253 257 261 261 249 245 239 240 248 257 264 265 274 279 266 265 299 114 84 303 330 311 206 198 195 152 147 160 139
358 348 342 332 323 319 314 298 300 304 305 299 290 280 265 270 260 256 256 260 246 241 239 248 256 254 262 263 261 274 255 264 272 144 108 285 38 122 185 193 192 169 155 162 136
3 351 346 339 334 319 308 301 342 327 333 319 284 276 271 262 256 257 250 254 242 236 242 247 251 247 252 253 245 254 256 254 256 277 263 301 346 113 145 170 171 169 156 151 139
13 3 348 350 344 337 340 352 336 321 307 306 290 265 270 272 262 245 244 241 238 239 236 244 244 240 238 246 247 254 264 260 257 280 301 298 92 134 141 157 173 155 154 142 141
44 48 38 12 359 356 355 349 344 331 297 263 260 258 253 263 257 245 241 235 236 234 240 247 243 247 244 242 245 251 260 262 273 279 310 288 42 132 154 166 177 153 155 148 142
49 41 33 26 13 20 6 350 324 318 302 280 274 260 258 262 248 237 240 242 238 236 239 243 251 247 242 237 243 249 255 258 264 267 282 269 280 278 256 175 160 156 154 154 151
43 41 36 36 21 5 346 13 329 352 301 288 270 266 265 266 249 239 240 240 244 237 243 246 244 247 241 239 243 246 258 266 256 252 261 263 263 252 257 214 158 161 160 160 163
42 42 44 51 42 34 349 308 303 353 299 294 289 278 274 239 251 238 234 241 243 242 243 246 244 242 243 240 244 241 265 268 254 252 260 260 273 268 250 246 166 184 161 170 164
38 47 55 57 73 149 279 282 354 335 300 292 295 275 249 252 251 240 235 239 252 252 253 250 249 248 243 243 247 243 267 268 256 258 253 258 256 258 223 209 177 186 167 156 184
26 56 66 78 92 13 293 292 359 324 297 293 290 285 254 244 245 247 234 236 241 246 246 254 246 244 249 246 251 246 252 244 246 250 253 258 249 252 268 235 165 202 161 175 236
279 91 86 114 152 260 306 26 16 300 281 302 296 281 250 237 244 238 236 244 243 249 255 246 240 244 252 242 244 246 246 246 245 248 260 254 250 255 261 247 224 191 180 201 244
154 68 81 121 102 64 15 45 52 311 257 295 293 297 254 245 245 246 237 247 242 248 247 254 246 259 254 252 247 243 248 258 258 266 262 258 265 278 256 252 234 253 242 152 242
39 61 88 112 62 334 12 31 36 325 309 297 320 319 273 265 253 225 239 270 248 263 254 254 246 254 260 250 252 245 257 249 255 253 252 258 258 258 255 253 256 256 257 245 210
43 53 90 92 6 355 22 52 24 296 292 317 335 333 301 274 264 240 257 269 269 262 263 258 252 249 258 247 245 240 245 252 257 262 259 247 259 278 256 264 261 264 258 239 226
41 62 107 104 63 27 18 63 72 333 332 303 314 342 323 283 272 257 253 267 280 271 255 266 257 247 245 261 256 249 247 250 249 251 264 259 258 275 265 271 279 282 271 240 260
37 64 104 110 70 84 85 86 49 314 313 312 294 313 310 287 271 265 273 278 288 281 265 271 261 244 245 254 266 253 254 253 258 261 255 255 255 259 262 282 279 287 319 323 305
51 56 78 75 73 47 74 68 72 33 305 313 287 295 302 280 270 265 264 273 279 285 272 272 267 253 244 252 263 256 259 255 252 255 257 260 239 238 229 199 80 7 339 348 343
47 67 81 94 76 70 58 39 6 43 318 318 315 274 305 291 261 277 278 276 281 283 276 266 253 261 265 277 269 272 267 256 251 259 256 243 237 238 233 240 258 254 334 342 336
26 36 150 115 70 54 73 69 49 22 345 318 339 330 340 284 262 264 272 285 274 289 270 275 253 261 261 276 278 276 291 263 250 249 258 229 238 209 181 177 246 213 107 20 27
311 18 79 117 72 69 74 69 66 84 5 358 324 312 306 284 290 291 282 276 291 293 290 282 265 253 253 270 269 266 283 283 249 255 232 241 213 191 204 214 212 182 249 8 45